CW2548 Weather Reports


time (UTC)temp
C
wind
direction
speed
KPH
gust
KPH
rain 1hr
cm
rain 24hr
cm
rain mn
cm
humidity
%
barometer
mb
20260902150246 28 105 4.8 8.0 0.00 0.36 0.00 80 1015.7
20260902145247 28 119 8.0 12.9 0.00 0.36 0.00 82 1015.8
20260902144246 28 169 8.0 9.7 0.00 0.36 0.00 83 1015.7
20260902143246 27 128 6.4 12.9 0.00 0.36 0.00 84 1015.9
20260902142246 27 127 11.3 12.9 0.00 0.36 0.00 83 1015.9
20260902141246 28 119 8.0 9.7 0.00 0.36 0.00 84 1015.8
20260902140246 27 103 3.2 4.8 0.00 0.36 0.00 87 1015.6
20260902135246 27 104 3.2 8.0 0.00 0.36 0.00 86 1015.5
20260902134246 27 141 8.0 14.5 0.00 0.36 0.00 86 1015.4
20260902133246 28 114 8.0 9.7 0.00 0.36 0.00 86 1015.2
20260902132246 28 110 4.8 8.0 0.00 0.36 0.00 86 1015.0
20260902131246 28 124 4.8 6.4 0.00 0.36 0.00 86 1014.9
20260902130246 28 152 3.2 8.0 0.00 0.36 0.00 85 1014.8
20260902125246 28 130 6.4 9.7 0.00 0.36 0.00 85 1014.9
20260902124246 28 130 4.8 8.0 0.00 0.36 0.00 84 1014.8
20260902123308 28 155 6.4 8.0 0.00 0.36 0.00 84 1014.8
20260902122246 28 149 1.6 3.2 0.00 0.36 0.00 85 1014.7
20260902121328 28 163 6.4 9.7 0.00 0.36 0.00 85 1014.8
20260902120246 28 144 1.6 6.4 0.00 0.36 0.00 86 1014.7
20260902115246 28 126 4.8 8.0 0.00 0.36 0.00 86 1014.7
20260902114246 28 116 1.6 4.8 0.00 0.36 0.00 86 1014.7
20260902113307 28 129 3.2 4.8 0.00 0.36 0.00 86 1014.9
20260902112306 28 164 3.2 4.8 0.00 0.36 0.00 86 1014.8
20260902111246 28 144 3.2 6.4 0.00 0.36 0.00 86 1014.8
20260902110246 28 167 4.8 6.4 0.00 0.36 0.00 85 1014.8
20260902105247 28 127 1.6 4.8 0.00 0.36 0.00 85 1014.9
20260902104246 28 145 4.8 4.8 0.00 0.36 0.00 84 1014.8
20260902103246 28 145 3.2 4.8 0.00 0.36 0.00 84 1014.6
20260902101307 28 151 1.6 3.2 0.00 0.36 0.00 83 1014.7
20260902100246 28 192 3.2 6.4 0.00 0.36 0.00 83 1014.7
20260902095246 28 161 3.2 6.4 0.00 0.36 0.00 82 1014.7
20260902094246 28 165 4.8 8.0 0.00 0.36 0.00 82 1014.8
20260902093246 28 146 3.2 6.4 0.00 0.36 0.00 81 1014.9
20260902092246 28 154 3.2 4.8 0.00 0.36 0.00 81 1014.9
20260902091306 28 153 3.2 4.8 0.00 0.36 0.00 81 1014.8
20260902090247 28 152 3.2 3.2 0.00 0.36 0.00 81 1015.0
20260902085246 28 161 6.4 8.0 0.00 0.36 0.00 81 1015.0
20260902084306 28 171 4.8 6.4 0.00 0.36 0.00 81 1015.1
20260902083247 28 157 6.4 8.0 0.00 0.36 0.00 81 1015.1
20260902082246 28 151 6.4 8.0 0.00 0.36 0.00 81 1015.2
20260902081247 28 164 6.4 8.0 0.00 0.36 0.00 80 1015.3
20260902080247 28 150 6.4 9.7 0.00 0.36 0.00 79 1015.2
20260902075246 28 146 3.2 3.2 0.00 0.36 0.00 79 1015.2
20260902074246 28 155 4.8 6.4 0.00 0.36 0.00 79 1015.0
20260902073246 29 146 1.6 4.8 0.00 0.36 0.00 78 1015.0
20260902072247 29 133 6.4 8.0 0.00 0.36 0.00 77 1015.0
20260902071247 29 125 4.8 8.0 0.00 0.36 0.00 76 1015.0
20260902070246 29 142 3.2 6.4 0.00 0.36 0.00 76 1015.1
20260902065246 29 127 3.2 4.8 0.00 0.36 0.00 76 1015.0
20260902064246 29 131 1.6 1.6 0.00 0.36 0.00 75 1014.9
20260902063416 29 187 1.6 4.8 0.00 0.36 0.00 75 1014.7
20260902062416 29 147 4.8 6.4 0.00 0.36 0.00 75 1014.7
20260902060416 30 145 4.8 6.4 0.00 0.36 0.00 75 1014.8
20260902055416 30 144 4.8 6.4 0.00 0.36 0.00 75 1014.9
20260902054416 30 160 1.6 4.8 0.00 0.36 0.00 75 1014.7
20260902053416 30 165 4.8 6.4 0.00 0.36 0.00 74 1014.7
20260902052416 30 164 3.2 4.8 0.00 0.36 0.00 73 1014.8
20260902051418 30 146 3.2 6.4 0.00 0.36 0.00 71 1014.8
20260902050416 30 169 6.4 8.0 0.00 0.36 0.00 71 1014.8
20260902045416 30 166 3.2 3.2 0.00 0.36 0.00 72 1014.8
20260902044417 30 188 4.8 6.4 0.00 0.36 0.00 71 1014.6
20260902043416 30 200 1.6 3.2 0.00 0.36 0.00 72 1014.5
20260902042417 30 203 1.6 3.2 0.00 0.36 0.00 71 1014.5
20260902041416 31 218 3.2 4.8 0.00 0.36 0.00 71 1014.4
20260902040417 31 156 3.2 4.8 0.00 0.36 0.00 70 1014.1
20260902035417 31 191 1.6 3.2 0.00 0.36 0.00 69 1014.0
20260902034438 31 151 3.2 3.2 0.00 0.36 0.00 68 1013.7
20260902033416 30 162 3.2 4.8 0.00 0.36 0.00 67 1013.6
20260902032417 30 146 4.8 4.8 0.00 0.36 0.00 66 1013.3
20260902031417 30 185 3.2 3.2 0.00 0.36 0.00 65 1013.1
20260902030416 31 173 3.2 3.2 0.00 0.36 0.00 67 1013.1
20260902025457 31 139 0.0 1.6 0.00 0.36 0.00 65 1013.0
20260902024416 31 148 0.0 1.6 0.00 0.36 0.00 64 1012.8
20260902023416 31 135 1.6 3.2 0.00 0.36 0.00 64 1012.6
20260902022417 31 211 1.6 3.2 0.00 0.36 0.00 64 1012.6
20260902021416 31 0.0 3.2 0.00 0.36 0.00 66 1012.4
20260902020416 31 225 4.8 6.4 0.00 0.36 0.00 64 1012.2
20260902015417 31 188 4.8 6.4 0.00 0.36 0.00 64 1012.2
20260902014416 30 202 4.8 9.7 0.00 0.36 0.00 66 1012.1
20260902013416 30 195 6.4 8.0 0.00 0.36 0.00 69 1012.1
20260902012437 29 324 4.8 4.8 0.00 0.36 0.00 71 1011.8
20260902011416 29 263 3.2 4.8 0.00 0.36 0.00 70 1011.7
20260902010416 30 266 8.0 12.9 0.00 0.36 0.00 70 1011.5
20260902005416 30 244 9.7 19.3 0.00 0.36 0.00 68 1011.6
20260902004416 30 246 8.0 12.9 0.20 0.36 0.00 67 1011.6
20260902003416 28 247 11.3 16.1 0.36 0.36 0.00 71 1011.6
20260902002416 28 258 16.1 24.1 0.36 0.36 0.00 74 1011.8
20260902001416 29 234 16.1 29.0 0.36 0.36 0.00 76 1011.8
20260902000437 30 234 8.0 11.3 0.36 0.36 0.00 72 1011.1
20260901235437 30 153 9.7 17.7 0.36 0.36 0.36 72 1010.9
20260901234417 32 185 22.5 25.7 0.15 0.15 0.15 65 1011.2
20260901233436 35 237 17.7 20.9 0.00 0.00 0.00 54 1011.1
20260901232418 37 218 9.7 14.5 0.00 0.00 0.00 48 1011.2
20260901231436 37 78 1.6 3.2 0.00 0.00 0.00 45 1011.1
20260901230437 37 296 1.6 1.6 0.00 0.00 0.00 46 1011.1
20260901225416 37 311 4.8 6.4 0.00 0.00 0.00 45 1011.1
20260901224456 37 288 6.4 11.3 0.00 0.00 0.00 45 1011.2
20260901223417 38 295 0.0 4.8 0.00 0.00 0.00 43 1011.3
20260901222417 38 297 8.0 9.7 0.00 0.00 0.00 44 1011.5
20260901221416 38 290 4.8 9.7 0.00 0.00 0.00 44 1011.7
20260901220416 38 211 1.6 3.2 0.00 0.00 0.00 43 1011.9
20260901215416 38 261 4.8 11.3 0.00 0.00 0.00 44 1011.9
20260901214416 38 157 4.8 8.0 0.00 0.00 0.00 44 1012.1
20260901213416 38 247 6.4 9.7 0.00 0.00 0.00 44 1012.2
20260901212416 38 195 4.8 9.7 0.00 0.03 0.00 45 1012.4
20260901211416 38 153 8.0 9.7 0.00 0.18 0.00 46 1012.6
20260901210416 37 139 8.0 11.3 0.00 0.51 0.00 46 1012.7
20260901205416 37 16 3.2 4.8 0.00 0.58 0.00 48 1012.8
20260901204416 37 87 11.3 14.5 0.00 0.61 0.00 48 1013.0
20260901203417 36 186 9.7 16.1 0.00 0.66 0.00 50 1013.2
20260901202416 37 120 4.8 6.4 0.00 0.66 0.00 48 1013.4
20260901201416 37 118 0.0 1.6 0.00 0.66 0.00 49 1013.6
20260901200416 37 179 6.4 9.7 0.00 0.66 0.00 47 1013.8
20260901195416 36 115 3.2 4.8 0.00 0.66 0.00 47 1013.9
20260901194416 37 74 3.2 4.8 0.00 0.66 0.00 49 1014.2
20260901193416 36 259 3.2 4.8 0.00 0.66 0.00 50 1014.3
20260901192457 36 173 3.2 9.7 0.00 0.66 0.00 51 1014.5
20260901191416 36 112 8.0 11.3 0.00 0.66 0.00 52 1014.6
20260901190416 36 161 9.7 11.3 0.00 0.66 0.00 52 1014.8
20260901185416 36 156 3.2 4.8 0.00 0.66 0.00 53 1015.0
20260901184417 35 206 3.2 11.3 0.00 0.66 0.00 56 1014.9
20260901183416 35 207 1.6 1.6 0.00 0.66 0.00 56 1015.1
20260901182416 35 225 3.2 11.3 0.00 0.66 0.00 58 1015.2
20260901181417 34 59 6.4 9.7 0.00 0.66 0.00 59 1015.2
20260901180416 34 142 8.0 11.3 0.00 0.66 0.00 59 1015.4
20260901175437 35 170 4.8 6.4 0.00 0.66 0.00 61 1015.5
20260901174416 34 141 9.7 12.9 0.00 0.66 0.00 61 1015.5
20260901173416 33 112 6.4 9.7 0.00 0.66 0.00 63 1015.5
20260901172416 33 146 4.8 9.7 0.00 0.66 0.00 64 1015.7
20260901171416 33 132 6.4 11.3 0.00 0.66 0.00 65 1015.7
20260901170417 32 208 1.6 6.4 0.00 0.66 0.00 66 1015.7
20260901165416 32 136 1.6 1.6 0.00 0.66 0.00 68 1015.7
20260901164416 31 157 9.7 11.3 0.00 0.66 0.00 70 1015.6
20260901163416 31 146 3.2 6.4 0.00 0.66 0.00 71 1015.5
20260901162437 31 95 3.2 8.0 0.00 0.66 0.00 72 1015.5
20260901161416 31 126 4.8 6.4 0.00 0.66 0.00 74 1015.5
20260901160416 30 65 1.6 3.2 0.00 0.66 0.00 76 1015.4
20260901155416 29 64 6.4 9.7 0.00 0.66 0.00 77 1015.4
20260901154417 29 64 6.4 8.0 0.00 0.66 0.00 79 1015.4
20260901153416 28 79 4.8 6.4 0.00 0.66 0.00 79 1015.4
20260901152417 28 76 8.0 11.3 0.00 0.66 0.00 80 1015.5
20260901151416 28 67 6.4 11.3 0.00 0.66 0.00 80 1015.4